Location: Starry Hill Observatory
(46.8582°N, 122.3590°W)
Time: 18:23:30
(UTC-07:00)

ISS - Visible Passes

Search period start: 03 August 2015 00:00
Search period end: 13 August 2015 00:00
Orbit: 401 x 403 km, 51.6° (Epoch: 03 August)

Date Brightness Start Highest point End Pass type
(mag) Time Alt. Az. Time Alt. Az. Time Alt. Az.
03 Aug -1.3 00:36:06 10° WNW 00:38:09 28° NNW 00:38:09 28° NNW visible
03 Aug -2.9 22:05:55 10° WSW 22:09:09 65° NNW 22:12:25 10° ENE visible
03 Aug -1.6 23:42:55 10° WNW 23:45:56 33° N 23:46:56 27° NE visible
04 Aug -3.4 21:12:51 10° WSW 21:16:06 83° SSE 21:19:22 10° ENE visible
04 Aug -1.8 22:49:41 10° WNW 22:52:45 36° N 22:55:40 11° ENE visible
05 Aug -1.2 00:26:31 10° WNW 00:28:14 25° NW 00:28:14 25° NW visible
05 Aug -2.1 21:56:26 10° W 21:59:35 43° NNW 22:02:44 10° ENE visible
05 Aug -1.9 23:33:25 10° WNW 23:36:27 35° N 23:36:55 33° NNE visible
06 Aug -2.7 21:03:13 10° W 21:06:26 58° NNW 21:09:40 10° ENE visible
06 Aug -1.7 22:40:14 10° WNW 22:43:15 33° N 22:45:35 14° ENE visible
07 Aug -1.0 00:16:50 10° WNW 00:18:10 22° NW 00:18:10 22° NW visible
07 Aug -1.8 21:46:59 10° WNW 21:50:01 35° N 21:53:04 10° ENE visible
07 Aug -2.3 23:23:45 10° WNW 23:26:49 43° N 23:26:49 43° N visible
08 Aug -1.9 22:30:37 10° WNW 22:33:41 36° N 22:35:29 20° ENE visible
09 Aug -0.8 00:07:04 10° WNW 00:08:03 18° WNW 00:08:03 18° WNW visible
09 Aug -1.8 21:37:25 10° WNW 21:40:26 33° N 21:43:28 10° ENE visible
09 Aug -2.6 23:13:59 10° WNW 23:16:43 53° NNW 23:16:43 53° NNW visible
10 Aug -2.5 22:20:52 10° WNW 22:24:02 45° NNE 22:25:22 28° ENE visible
10 Aug -0.5 23:57:21 10° WNW 23:57:57 14° WNW 23:57:57 14° WNW visible
11 Aug -2.1 21:27:43 10° WNW 21:30:48 37° N 21:33:53 10° E visible
11 Aug -2.5 23:04:09 10° WNW 23:06:37 47° WNW 23:06:37 47° WNW visible
12 Aug -3.2 22:11:01 10° WNW 22:14:17 70° NNE 22:15:19 39° E visible
12 Aug -0.3 23:47:50 10° W 23:47:53 10° W 23:47:53 10° W visible
